Regional Weather Roundup
Issued by NWS

Home | Current Version | Previous Version | Graphics & Text | Print | Product List | Glossary On
Versions: 1 2 3 4 5 6 7 8 9 10 11 12 13 14 15 16 17 18 19 20 21 22 23 24 25 26 27 28 29 30 31 32 33 34 35 36 37 38 39 40 41 42 43 44 45 46 47 48 49 50
341
ASUS44 KJAN 181110
RWRMS

MISSISSIPPI HOURLY WEATHER ROUNDUP
NATIONAL WEATHER SERVICE JACKSON MS
500 AM CST THU DEC 18 2014

NOTE: "FAIR: INDICATES FEW OR NO CLOUDS BELOW 12,000 FEET WITH NO
SIGNIFICANT WEATHER AND/OR OBSTRUCTIONS TO VISIBILITY.

MSZ001>002-007>008-010>013-018>021-025>028-034>036-181200-
NORTHWEST MISSISSIPPI

CITY           SKY/WX    TMP DP  RH WIND       PRES   REMARKS
CLARKSDALE     CLOUDY    39  37  93 NE7       30.22S WCI  34
CLEVELAND      CLOUDY    40  39  97 E8        30.19F WCI  35
GREENWOOD      CLOUDY    42  38  85 E7        30.21F
GREENVILLE     CLOUDY    42  39  89 E9        30.18F
GRENADA        LGT RAIN  39  36  87 CALM      30.22F
OLIVE BRANCH   MOCLDY    36  36 100 CALM      30.21F
OXFORD         MOCLDY    36  34  93 E5        30.23S WCI  32
TUNICA         CLOUDY    37  36  93 E5        30.23R WCI  34
$$

MSZ003>006-009-014>017-022>024-029>033-037>039-181200-
NORTHEAST MISSISSIPPI

CITY           SKY/WX    TMP DP  RH WIND       PRES   REMARKS
COLUMBUS AFB   CLOUDY    41  35  79 NE3       30.24S
CORINTH        CLOUDY    39  34  81 CALM      30.21F
GOLDN TRIANGLE CLOUDY    41  36  81 NE5       30.22F
STARKVILLE     CLOUDY    41  36  81 NE5       30.22F
TUPELO         CLOUDY    41  33  73 E6        30.22F
$$

MSZ040-058-181200-
CENTRAL MISSISSIPPI

CITY           SKY/WX    TMP DP  RH WIND       PRES   REMARKS
JACKSON INTL   CLOUDY    45  39  79 E5        30.19F
JACKSON HAWKNS CLOUDY    46  38  73 E6        30.19F
MERIDIAN KEY   CLOUDY    39  37  92 N6        30.22R WCI  35
MERIDIAN NAS   CLOUDY    39  36  89 NE7       30.23S WCI  34
RAYMOND        CLOUDY    46  41  81 E3        30.18F
VICKSBURG      CLOUDY    46  40  79 E7        30.19S
$$

MSZ059>079-181200-
SOUTH MISSISSIPPI

CITY           SKY/WX    TMP DP  RH WIND       PRES   REMARKS
HATTIESBURG    CLOUDY    43  40  89 CALM      30.20S
MCCOMB         CLOUDY    46  41  82 CALM      30.15F
NATCHEZ        CLOUDY    48  41  76 NE3       30.17S
PINE BELT      CLOUDY    45  37  76 N5        30.20R
$$

MSZ080>082-181200-
COASTAL MISSISSIPPI

CITY           SKY/WX    TMP DP  RH WIND       PRES   REMARKS
BILOXI         MOCLDY    44  41  89 NE6       30.18S
PASCAGOULA     MOCLDY    42  40  92 CALM      30.19R
GULFPORT       MOCLDY    46  40  79 N3        30.17S
$$



USA.gov is the U.S. government's official web portal to all federal, state and local government web resources and services.